| time (UTC) | temp F | wind direction | speed knots | gust knots | rain 1hr in | rain 24hr in | rain mn in | humidity % | barometer mb |
| 20260508025104 | 73 | 288 | 1.7 | 4.3 | 0.00 | 0.00 | 0.00 | 54 | 1014.2 |
| 20260508024604 | 73 | 288 | 1.7 | 2.6 | 0.00 | 0.00 | 0.00 | 54 | 1014.2 |
| 20260508024104 | 74 | 288 | 1.7 | 2.6 | 0.00 | 0.00 | 0.00 | 52 | 1014.1 |
| 20260508023604 | 75 | 288 | 2.6 | 2.6 | 0.00 | 0.00 | 0.00 | 51 | 1014.1 |
| 20260508023104 | 75 | 287 | 0.9 | 2.6 | 0.00 | 0.00 | 0.00 | 50 | 1013.9 |
| 20260508022605 | 76 | 287 | 1.7 | 2.6 | 0.00 | 0.00 | 0.00 | 48 | 1013.9 |
| 20260508022104 | 76 | 287 | 0.9 | 4.3 | 0.00 | 0.00 | 0.00 | 48 | 1013.8 |
| 20260508021607 | 76 | 287 | 1.7 | 4.3 | 0.00 | 0.00 | 0.00 | 47 | 1013.8 |
| 20260508021105 | 77 | 280 | 1.7 | 5.2 | 0.00 | 0.00 | 0.00 | 47 | 1013.7 |
| 20260508020604 | 77 | 279 | 2.6 | 5.2 | 0.00 | 0.00 | 0.00 | 46 | 1013.7 |
| 20260508015604 | 78 | 273 | 3.5 | 6.1 | 0.00 | 0.00 | 0.00 | 45 | 1013.7 |
| 20260508015104 | 78 | 282 | 5.2 | 6.1 | 0.00 | 0.00 | 0.00 | 44 | 1013.7 |
| 20260508014603 | 79 | 266 | 4.3 | 6.1 | 0.00 | 0.00 | 0.00 | 43 | 1013.7 |
| 20260508014104 | 79 | 266 | 4.3 | 7.0 | 0.00 | 0.00 | 0.00 | 42 | 1013.7 |
| 20260508013604 | 79 | 261 | 5.2 | 7.8 | 0.00 | 0.00 | 0.00 | 42 | 1013.7 |
| 20260508013104 | 80 | 262 | 4.3 | 7.8 | 0.00 | 0.00 | 0.00 | 41 | 1013.7 |
| 20260508012605 | 80 | 286 | 5.2 | 7.8 | 0.00 | 0.00 | 0.00 | 41 | 1013.6 |
| 20260508012105 | 81 | 269 | 4.3 | 7.8 | 0.00 | 0.00 | 0.00 | 39 | 1013.6 |
| 20260508011606 | 81 | 285 | 4.3 | 7.0 | 0.00 | 0.00 | 0.00 | 39 | 1013.5 |
| 20260508010604 | 82 | 293 | 5.2 | 7.0 | 0.00 | 0.00 | 0.00 | 37 | 1013.4 |
| 20260508010105 | 82 | 290 | 5.2 | 10.4 | 0.00 | 0.00 | 0.00 | 35 | 1013.5 |
| 20260508005604 | 82 | 266 | 5.2 | 10.4 | 0.00 | 0.00 | 0.00 | 38 | 1013.4 |
| 20260508005104 | 82 | 276 | 4.3 | 10.4 | 0.00 | 0.00 | 0.00 | 37 | 1013.4 |
| 20260508004605 | 82 | 269 | 4.3 | 10.4 | 0.00 | 0.00 | 0.00 | 37 | 1013.3 |
| 20260508004103 | 83 | 285 | 4.3 | 8.7 | 0.00 | 0.00 | 0.00 | 37 | 1013.2 |
| 20260508003604 | 83 | 277 | 5.2 | 8.7 | 0.00 | 0.00 | 0.00 | 37 | 1013.2 |
| 20260508003104 | 83 | 288 | 5.2 | 8.7 | 0.00 | 0.00 | 0.00 | 37 | 1013.2 |
| 20260508002604 | 83 | 259 | 5.2 | 8.7 | 0.00 | 0.00 | 0.00 | 37 | 1013.2 |
| 20260508001606 | 83 | 268 | 4.3 | 10.4 | 0.00 | 0.00 | 0.00 | 37 | 1013.2 |
| 20260508001104 | 83 | 274 | 6.1 | 10.4 | 0.00 | 0.00 | 0.00 | 36 | 1013.2 |
| 20260508000604 | 83 | 289 | 5.2 | 10.4 | 0.00 | 0.00 | 0.00 | 37 | 1013.2 |
| 20260508000105 | 83 | 312 | 6.1 | 10.4 | 0.00 | 0.00 | 0.00 | 37 | 1013.3 |
| 20260507235604 | 83 | 263 | 6.1 | 10.4 | 0.00 | 0.00 | 0.00 | 37 | 1013.3 |
| 20260507235104 | 84 | 266 | 6.1 | 12.2 | 0.00 | 0.00 | 0.00 | 36 | 1013.2 |
| 20260507234605 | 84 | 284 | 6.1 | 12.2 | 0.00 | 0.00 | 0.00 | 35 | 1013.2 |
| 20260507234104 | 84 | 275 | 6.1 | 12.2 | 0.00 | 0.00 | 0.00 | 35 | 1013.2 |
| 20260507233604 | 84 | 261 | 5.2 | 10.4 | 0.00 | 0.00 | 0.00 | 35 | 1013.1 |
| 20260507233104 | 85 | 282 | 5.2 | 10.4 | 0.00 | 0.00 | 0.00 | 34 | 1013.1 |
| 20260507232604 | 85 | 290 | 5.2 | 10.4 | 0.00 | 0.00 | 0.00 | 35 | 1013.0 |
| 20260507232103 | 85 | 298 | 5.2 | 8.7 | 0.00 | 0.00 | 0.00 | 35 | 1012.9 |
| 20260507231104 | 85 | 282 | 6.1 | 11.3 | 0.00 | 0.00 | 0.00 | 34 | 1013.1 |
| 20260507230604 | 85 | 270 | 7.8 | 11.3 | 0.00 | 0.00 | 0.00 | 34 | 1013.0 |
| 20260507230104 | 85 | 279 | 7.0 | 10.4 | 0.00 | 0.00 | 0.00 | 33 | 1012.9 |
| 20260507225604 | 86 | 263 | 5.2 | 10.4 | 0.00 | 0.00 | 0.00 | 32 | 1012.8 |
| 20260507225104 | 85 | 302 | 5.2 | 13.0 | 0.00 | 0.00 | 0.00 | 33 | 1012.9 |
| 20260507224104 | 86 | 270 | 6.1 | 13.0 | 0.00 | 0.00 | 0.00 | 31 | 1012.9 |
| 20260507223604 | 86 | 290 | 6.1 | 13.0 | 0.00 | 0.00 | 0.00 | 31 | 1012.9 |
| 20260507223104 | 86 | 304 | 7.0 | 10.4 | 0.00 | 0.00 | 0.00 | 31 | 1012.9 |
| 20260507222605 | 86 | 287 | 6.1 | 13.9 | 0.00 | 0.00 | 0.00 | 32 | 1012.9 |
| 20260507222104 | 86 | 328 | 7.0 | 13.9 | 0.00 | 0.00 | 0.00 | 32 | 1013.1 |
| 20260507221607 | 87 | 269 | 5.2 | 10.4 | 0.00 | 0.00 | 0.00 | 31 | 1012.9 |
| 20260507221104 | 87 | 345 | 5.2 | 10.4 | 0.00 | 0.00 | 0.00 | 30 | 1013.1 |
| 20260507220604 | 87 | 308 | 5.2 | 11.3 | 0.00 | 0.00 | 0.00 | 29 | 1013.1 |
| 20260507220104 | 87 | 250 | 5.2 | 11.3 | 0.00 | 0.00 | 0.00 | 29 | 1013.3 |
| 20260507215104 | 87 | 265 | 5.2 | 11.3 | 0.00 | 0.00 | 0.00 | 30 | 1013.3 |
| 20260507214606 | 87 | 312 | 6.1 | 10.4 | 0.00 | 0.00 | 0.00 | 27 | 1013.4 |
| 20260507214104 | 87 | 287 | 5.2 | 10.4 | 0.00 | 0.00 | 0.00 | 29 | 1013.4 |
| 20260507213604 | 87 | 293 | 6.1 | 10.4 | 0.00 | 0.00 | 0.00 | 28 | 1013.4 |
| 20260507213104 | 87 | 298 | 5.2 | 10.4 | 0.00 | 0.00 | 0.00 | 27 | 1013.4 |
| 20260507212604 | 87 | 288 | 5.2 | 10.4 | 0.00 | 0.00 | 0.00 | 26 | 1013.4 |
| 20260507212104 | 87 | 305 | 5.2 | 10.4 | 0.00 | 0.00 | 0.00 | 27 | 1013.6 |
| 20260507211104 | 87 | 296 | 6.1 | 10.4 | 0.00 | 0.00 | 0.00 | 28 | 1013.7 |
| 20260507210605 | 87 | 321 | 6.1 | 11.3 | 0.00 | 0.00 | 0.00 | 27 | 1013.7 |
| 20260507210104 | 86 | 319 | 6.1 | 11.3 | 0.00 | 0.00 | 0.00 | 27 | 1013.8 |
| 20260507205604 | 86 | 285 | 4.3 | 8.7 | 0.00 | 0.00 | 0.00 | 29 | 1013.9 |
| 20260507205104 | 86 | 272 | 5.2 | 10.4 | 0.00 | 0.00 | 0.00 | 29 | 1014.0 |
| 20260507204604 | 85 | 259 | 6.1 | 10.4 | 0.00 | 0.00 | 0.00 | 29 | 1014.1 |
| 20260507204105 | 85 | 267 | 5.2 | 10.4 | 0.00 | 0.00 | 0.00 | 29 | 1014.1 |
| 20260507203104 | 85 | 287 | 4.3 | 7.8 | 0.00 | 0.00 | 0.00 | 29 | 1014.1 |
| 20260507202604 | 84 | 242 | 2.6 | 8.7 | 0.00 | 0.00 | 0.00 | 30 | 1014.1 |
| 20260507202106 | 84 | 283 | 4.3 | 10.4 | 0.00 | 0.00 | 0.00 | 31 | 1014.1 |
| 20260507200604 | 83 | 289 | 3.5 | 7.8 | 0.00 | 0.00 | 0.00 | 31 | 1014.4 |
| 20260507200104 | 83 | 210 | 3.5 | 7.8 | 0.00 | 0.00 | 0.00 | 32 | 1014.6 |
| 20260507195604 | 83 | 277 | 4.3 | 7.8 | 0.00 | 0.00 | 0.00 | 31 | 1014.7 |
| 20260507194604 | 83 | 273 | 4.3 | 6.1 | 0.00 | 0.00 | 0.00 | 32 | 1014.7 |
| 20260507193604 | 82 | 236 | 0.9 | 7.0 | 0.00 | 0.00 | 0.00 | 32 | 1014.8 |
| 20260507193104 | 82 | 288 | 1.7 | 6.1 | 0.00 | 0.00 | 0.00 | 32 | 1014.8 |
| 20260507192603 | 81 | 282 | 1.7 | 6.1 | 0.00 | 0.00 | 0.00 | 32 | 1014.9 |
| 20260507192104 | 81 | 310 | 3.5 | 6.1 | 0.00 | 0.00 | 0.00 | 33 | 1015.0 |
| 20260507191604 | 80 | 319 | 2.6 | 7.0 | 0.00 | 0.00 | 0.00 | 32 | 1015.0 |
| 20260507191104 | 80 | 253 | 4.3 | 7.0 | 0.00 | 0.00 | 0.00 | 32 | 1015.3 |
| 20260507190604 | 80 | 297 | 2.6 | 6.1 | 0.00 | 0.00 | 0.00 | 32 | 1015.2 |
| 20260507190104 | 79 | 183 | 2.6 | 7.0 | 0.00 | 0.00 | 0.00 | 31 | 1015.3 |
| 20260507185603 | 79 | 260 | 2.6 | 7.0 | 0.00 | 0.00 | 0.00 | 31 | 1015.4 |
| 20260507185104 | 78 | 273 | 2.6 | 7.0 | 0.00 | 0.00 | 0.00 | 33 | 1015.4 |
| 20260507184604 | 78 | 300 | 2.6 | 6.1 | 0.00 | 0.00 | 0.00 | 34 | 1015.3 |
| 20260507184104 | 77 | 309 | 3.5 | 6.1 | 0.00 | 0.00 | 0.00 | 34 | 1015.4 |
| 20260507183603 | 77 | 303 | 3.5 | 6.1 | 0.00 | 0.00 | 0.00 | 34 | 1015.5 |
| 20260507183104 | 77 | 274 | 2.6 | 7.0 | 0.00 | 0.00 | 0.00 | 34 | 1015.6 |
| 20260507182604 | 77 | 273 | 4.3 | 7.0 | 0.00 | 0.00 | 0.00 | 35 | 1015.7 |
| 20260507182106 | 76 | 291 | 2.6 | 5.2 | 0.00 | 0.00 | 0.00 | 35 | 1015.7 |
| 20260507181604 | 76 | 277 | 2.6 | 5.2 | 0.00 | 0.00 | 0.00 | 36 | 1015.7 |
| 20260507181106 | 76 | 294 | 3.5 | 6.1 | 0.00 | 0.00 | 0.00 | 37 | 1015.8 |
| 20260507180604 | 75 | 253 | 4.3 | 6.1 | 0.00 | 0.00 | 0.00 | 38 | 1015.8 |
| 20260507180104 | 75 | 285 | 2.6 | 6.1 | 0.00 | 0.00 | 0.00 | 39 | 1015.9 |
| 20260507175104 | 75 | 270 | 3.5 | 6.1 | 0.00 | 0.00 | 0.00 | 39 | 1016.0 |
| 20260507174104 | 74 | 304 | 1.7 | 5.2 | 0.00 | 0.00 | 0.00 | 39 | 1016.0 |
| 20260507173605 | 73 | 318 | 2.6 | 5.2 | 0.00 | 0.00 | 0.00 | 40 | 1016.0 |
| 20260507173104 | 73 | 308 | 2.6 | 5.2 | 0.00 | 0.00 | 0.00 | 42 | 1016.0 |
| 20260507172604 | 73 | 303 | 2.6 | 6.1 | 0.00 | 0.00 | 0.00 | 43 | 1016.0 |
| 20260507172104 | 73 | 314 | 3.5 | 6.1 | 0.00 | 0.00 | 0.00 | 43 | 1016.0 |
| 20260507171604 | 72 | 281 | 2.6 | 6.1 | 0.00 | 0.00 | 0.00 | 44 | 1016.0 |
| 20260507171107 | 72 | 265 | 2.6 | 6.1 | 0.00 | 0.00 | 0.00 | 44 | 1016.0 |
| 20260507170604 | 72 | 305 | 1.7 | 5.2 | 0.00 | 0.00 | 0.00 | 44 | 1016.0 |
| 20260507165105 | 70 | 321 | 1.7 | 4.3 | 0.00 | 0.00 | 0.00 | 45 | 1016.2 |
| 20260507164604 | 70 | 298 | 2.6 | 4.3 | 0.00 | 0.00 | 0.00 | 45 | 1016.2 |
| 20260507164104 | 69 | 257 | 2.6 | 4.3 | 0.00 | 0.00 | 0.00 | 45 | 1016.2 |
| 20260507163604 | 69 | 234 | 1.7 | 4.3 | 0.00 | 0.00 | 0.00 | 45 | 1016.2 |
| 20260507163105 | 68 | 294 | 2.6 | 4.3 | 0.00 | 0.00 | 0.00 | 46 | 1016.2 |
| 20260507162105 | 67 | 318 | 1.7 | 2.6 | 0.00 | 0.00 | 0.00 | 46 | 1016.2 |
| 20260507161104 | 66 | 302 | 1.7 | 4.3 | 0.00 | 0.00 | 0.00 | 49 | 1016.2 |
| 20260507160104 | 66 | 273 | 2.6 | 5.2 | 0.00 | 0.00 | 0.00 | 53 | 1016.3 |
| 20260507155604 | 66 | 299 | 2.6 | 4.3 | 0.00 | 0.00 | 0.00 | 54 | 1016.2 |
| 20260507154604 | 66 | 65 | 1.7 | 4.3 | 0.00 | 0.00 | 0.00 | 55 | 1016.2 |
| 20260507154104 | 65 | 86 | 0.9 | 2.6 | 0.00 | 0.00 | 0.00 | 55 | 1016.3 |
| 20260507153104 | 64 | 89 | 0.9 | 2.6 | 0.00 | 0.00 | 0.00 | 58 | 1016.2 |
| 20260507152604 | 63 | 90 | 0.0 | 0.9 | 0.00 | 0.00 | 0.00 | 60 | 1016.2 |
| 20260507152104 | 63 | 90 | 0.0 | 1.7 | 0.00 | 0.00 | 0.00 | 59 | 1016.2 |
| 20260507151604 | 63 | 90 | 0.0 | 2.6 | 0.00 | 0.00 | 0.00 | 61 | 1016.2 |
| 20260507151107 | 63 | 90 | 1.7 | 2.6 | 0.00 | 0.00 | 0.00 | 61 | 1016.2 |
| 20260507150604 | 64 | 90 | 0.9 | 2.6 | 0.00 | 0.00 | 0.00 | 59 | 1016.3 |
| 20260507150105 | 64 | 90 | 0.0 | 1.7 | 0.00 | 0.00 | 0.00 | 57 | 1016.3 |
| 20260507145604 | 65 | 90 | 0.0 | 0.9 | 0.00 | 0.00 | 0.00 | 58 | 1016.3 |
| 20260507145104 | 64 | 79 | 0.0 | 0.0 | 0.00 | 0.00 | 0.00 | 57 | 1016.3 |
| 20260507144604 | 63 | 79 | 0.0 | 0.0 | 0.00 | 0.00 | 0.00 | 57 | 1016.3 |
| 20260507144105 | 63 | 79 | 0.0 | 0.0 | 0.00 | 0.00 | 0.00 | 59 | 1016.3 |
| 20260507143604 | 62 | 79 | 0.0 | 0.0 | 0.00 | 0.00 | 0.00 | 60 | 1016.3 |
| 20260507143104 | 61 | 79 | 0.0 | 0.0 | 0.00 | 0.00 | 0.00 | 62 | 1016.3 |
| 20260507142604 | 60 | 79 | 0.0 | 0.0 | 0.00 | 0.00 | 0.00 | 63 | 1016.3 |
| 20260507142104 | 59 | 79 | 0.0 | 0.0 | 0.00 | 0.00 | 0.00 | 65 | 1016.3 |
| 20260507141607 | 58 | 79 | 0.0 | 0.0 | 0.00 | 0.00 | 0.00 | 64 | 1016.3 |
| 20260507141104 | 57 | 79 | 0.0 | 0.0 | 0.00 | 0.00 | 0.00 | 64 | 1016.3 |
| 20260507140604 | 57 | 79 | 0.0 | 0.9 | 0.00 | 0.00 | 0.00 | 65 | 1016.3 |
| 20260507140104 | 57 | 79 | 0.0 | 1.7 | 0.00 | 0.00 | 0.00 | 65 | 1016.2 |
| 20260507135604 | 57 | 80 | 0.0 | 1.7 | 0.00 | 0.00 | 0.00 | 64 | 1016.1 |
| 20260507134103 | 56 | 76 | 0.0 | 1.7 | 0.00 | 0.00 | 0.00 | 63 | 1016.1 |
| 20260507133604 | 55 | 75 | 0.0 | 1.7 | 0.00 | 0.00 | 0.00 | 65 | 1016.1 |
| 20260507133104 | 55 | 62 | 0.0 | 1.7 | 0.00 | 0.00 | 0.00 | 65 | 1016.1 |
| 20260507132604 | 55 | 86 | 0.0 | 0.9 | 0.00 | 0.00 | 0.00 | 65 | 1016.0 |
| 20260507132104 | 55 | 86 | 0.0 | 0.9 | 0.00 | 0.00 | 0.00 | 64 | 1016.0 |
| 20260507131107 | 56 | 86 | 0.0 | 0.0 | 0.00 | 0.00 | 0.00 | 62 | 1016.0 |
| 20260507130104 | 56 | 86 | 0.0 | 0.9 | 0.00 | 0.00 | 0.00 | 62 | 1015.9 |
| 20260507125604 | 56 | 86 | 0.0 | 0.9 | 0.00 | 0.00 | 0.00 | 62 | 1015.9 |
| 20260507125104 | 56 | 86 | 0.0 | 0.9 | 0.00 | 0.00 | 0.00 | 62 | 1015.9 |
| 20260507124604 | 56 | 84 | 0.0 | 0.9 | 0.00 | 0.00 | 0.00 | 63 | 1015.9 |
| 20260507124104 | 55 | 85 | 0.9 | 0.9 | 0.00 | 0.00 | 0.00 | 66 | 1015.9 |
| 20260507123604 | 55 | 88 | 0.0 | 0.9 | 0.00 | 0.00 | 0.00 | 69 | 1015.9 |
| 20260507122106 | 54 | 88 | 0.0 | 0.9 | 0.00 | 0.00 | 0.00 | 72 | 1015.9 |
| 20260507121605 | 54 | 88 | 0.0 | 0.9 | 0.00 | 0.00 | 0.00 | 72 | 1015.9 |
| 20260507121107 | 54 | 88 | 0.0 | 1.7 | 0.00 | 0.00 | 0.00 | 73 | 1015.9 |
| 20260507120604 | 54 | 88 | 0.0 | 1.7 | 0.00 | 0.00 | 0.00 | 73 | 1015.8 |
| 20260507120104 | 54 | 73 | 0.9 | 1.7 | 0.00 | 0.00 | 0.00 | 74 | 1015.9 |
| 20260507114604 | 54 | 85 | 0.0 | 0.9 | 0.00 | 0.00 | 0.00 | 75 | 1015.9 |
| 20260507114104 | 55 | 85 | 0.0 | 0.9 | 0.00 | 0.00 | 0.00 | 75 | 1016.0 |
| 20260507113604 | 55 | 85 | 0.0 | 0.9 | 0.00 | 0.00 | 0.00 | 74 | 1016.1 |
| 20260507113104 | 55 | 85 | 0.0 | 0.9 | 0.00 | 0.00 | 0.00 | 74 | 1016.3 |
| 20260507112104 | 55 | 85 | 0.0 | 0.9 | 0.00 | 0.00 | 0.00 | 77 | 1016.4 |
| 20260507111605 | 55 | 85 | 0.0 | 0.9 | 0.00 | 0.00 | 0.00 | 77 | 1016.4 |
| 20260507111104 | 55 | 85 | 0.0 | 0.9 | 0.00 | 0.00 | 0.00 | 77 | 1016.4 |
| 20260507110604 | 55 | 84 | 0.0 | 0.9 | 0.00 | 0.00 | 0.00 | 77 | 1016.4 |
| 20260507110105 | 55 | 84 | 0.0 | 0.9 | 0.00 | 0.00 | 0.00 | 77 | 1016.4 |
| 20260507105603 | 55 | 81 | 0.9 | 0.9 | 0.00 | 0.00 | 0.00 | 77 | 1016.4 |
| 20260507105104 | 55 | 83 | 0.0 | 0.9 | 0.00 | 0.00 | 0.00 | 77 | 1016.4 |
| 20260507104104 | 55 | 83 | 0.0 | 0.9 | 0.00 | 0.00 | 0.00 | 77 | 1016.5 |
| 20260507103604 | 55 | 82 | 0.0 | 0.9 | 0.00 | 0.00 | 0.00 | 77 | 1016.5 |
| 20260507103104 | 55 | 82 | 0.0 | 0.0 | 0.00 | 0.00 | 0.00 | 77 | 1016.5 |
| 20260507102604 | 55 | 82 | 0.0 | 0.9 | 0.00 | 0.00 | 0.00 | 77 | 1016.6 |
| 20260507102106 | 55 | 82 | 0.0 | 0.9 | 0.00 | 0.00 | 0.00 | 77 | 1016.6 |
| 20260507101604 | 55 | 82 | 0.0 | 0.9 | 0.00 | 0.00 | 0.00 | 76 | 1016.6 |
| 20260507101106 | 55 | 82 | 0.0 | 0.9 | 0.00 | 0.00 | 0.00 | 76 | 1016.7 |
| 20260507100604 | 55 | 82 | 0.0 | 0.9 | 0.00 | 0.00 | 0.00 | 75 | 1016.7 |
| 20260507100104 | 56 | 82 | 0.0 | 0.0 | 0.00 | 0.00 | 0.00 | 75 | 1017.0 |
| 20260507095603 | 56 | 82 | 0.0 | 0.0 | 0.00 | 0.00 | 0.00 | 75 | 1017.0 |
| 20260507095104 | 56 | 82 | 0.0 | 0.9 | 0.00 | 0.00 | 0.00 | 75 | 1017.0 |
| 20260507094604 | 56 | 82 | 0.0 | 0.9 | 0.00 | 0.00 | 0.00 | 75 | 1017.0 |
| 20260507094104 | 56 | 82 | 0.0 | 0.9 | 0.00 | 0.00 | 0.00 | 74 | 1017.0 |
| 20260507093603 | 56 | 82 | 0.0 | 0.9 | 0.00 | 0.00 | 0.00 | 74 | 1017.1 |
| 20260507093104 | 56 | 82 | 0.0 | 0.9 | 0.00 | 0.00 | 0.00 | 74 | 1017.1 |
| 20260507092104 | 56 | 82 | 0.0 | 0.9 | 0.00 | 0.00 | 0.00 | 75 | 1017.2 |
| 20260507091604 | 56 | 82 | 0.0 | 0.9 | 0.00 | 0.00 | 0.00 | 76 | 1017.2 |
| 20260507091104 | 56 | 82 | 0.0 | 0.9 | 0.00 | 0.00 | 0.00 | 77 | 1017.2 |
| 20260507090605 | 56 | 81 | 0.0 | 0.9 | 0.00 | 0.00 | 0.00 | 78 | 1017.2 |
| 20260507090105 | 56 | 82 | 0.0 | 1.7 | 0.00 | 0.00 | 0.00 | 77 | 1017.2 |
| 20260507085104 | 56 | 73 | 0.9 | 1.7 | 0.00 | 0.00 | 0.00 | 79 | 1017.3 |
| 20260507084604 | 56 | 74 | 0.0 | 1.7 | 0.00 | 0.00 | 0.00 | 79 | 1017.3 |
| 20260507084104 | 56 | 74 | 0.9 | 1.7 | 0.00 | 0.00 | 0.00 | 79 | 1017.5 |
| 20260507083604 | 56 | 41 | 0.9 | 0.9 | 0.00 | 0.00 | 0.00 | 79 | 1017.5 |
| 20260507083104 | 56 | 41 | 0.9 | 0.9 | 0.00 | 0.00 | 0.00 | 79 | 1017.5 |
| 20260507082604 | 56 | 31 | 0.0 | 0.9 | 0.00 | 0.00 | 0.00 | 79 | 1017.4 |
| 20260507082106 | 56 | 30 | 0.0 | 0.9 | 0.00 | 0.00 | 0.00 | 79 | 1017.4 |
| 20260507081605 | 56 | 30 | 0.0 | 1.7 | 0.00 | 0.00 | 0.00 | 79 | 1017.6 |
| 20260507080604 | 56 | 19 | 0.0 | 1.7 | 0.00 | 0.00 | 0.00 | 78 | 1017.5 |
| 20260507080105 | 56 | 17 | 0.0 | 1.7 | 0.00 | 0.00 | 0.00 | 77 | 1017.6 |
| 20260507075604 | 56 | 14 | 0.0 | 0.9 | 0.00 | 0.00 | 0.00 | 77 | 1017.6 |
| 20260507075104 | 56 | 15 | 0.0 | 0.0 | 0.00 | 0.00 | 0.00 | 76 | 1017.5 |
| 20260507074604 | 57 | 15 | 0.0 | 1.7 | 0.00 | 0.00 | 0.00 | 76 | 1017.6 |
| 20260507074104 | 57 | 14 | 0.0 | 1.7 | 0.00 | 0.00 | 0.00 | 76 | 1017.7 |
| 20260507073104 | 57 | 0 | 0.0 | 0.9 | 0.00 | 0.00 | 0.00 | 75 | 1017.7 |
| 20260507072603 | 57 | 0 | 0.0 | 0.9 | 0.00 | 0.00 | 0.00 | 75 | 1017.8 |
| 20260507072104 | 57 | 0 | 0.0 | 0.9 | 0.00 | 0.00 | 0.00 | 75 | 1017.8 |
| 20260507071104 | 58 | 355 | 0.0 | 0.9 | 0.00 | 0.00 | 0.00 | 74 | 1018.1 |
| 20260507070605 | 58 | 355 | 0.0 | 0.9 | 0.00 | 0.00 | 0.00 | 74 | 1018.1 |
| 20260507065605 | 58 | 355 | 0.0 | 0.9 | 0.00 | 0.00 | 0.00 | 73 | 1018.1 |
| 20260507065104 | 58 | 355 | 0.0 | 0.9 | 0.00 | 0.00 | 0.00 | 73 | 1018.2 |
| 20260507064604 | 59 | 355 | 0.0 | 0.9 | 0.00 | 0.00 | 0.00 | 72 | 1018.1 |
| 20260507063604 | 59 | 354 | 0.0 | 0.9 | 0.00 | 0.00 | 0.00 | 72 | 1018.2 |
| 20260507063104 | 59 | 355 | 0.0 | 0.9 | 0.00 | 0.00 | 0.00 | 72 | 1018.1 |
| 20260507062604 | 59 | 355 | 0.0 | 1.7 | 0.00 | 0.00 | 0.00 | 72 | 1018.2 |
| 20260507062106 | 59 | 354 | 0.0 | 1.7 | 0.00 | 0.00 | 0.00 | 72 | 1018.1 |
| 20260507061604 | 59 | 323 | 0.0 | 0.9 | 0.00 | 0.00 | 0.00 | 71 | 1017.9 |
| 20260507061106 | 60 | 323 | 0.0 | 0.9 | 0.00 | 0.00 | 0.00 | 71 | 1018.0 |
| 20260507060604 | 60 | 323 | 0.0 | 0.9 | 0.00 | 0.00 | 0.00 | 70 | 1018.0 |
| 20260507055605 | 60 | 323 | 0.9 | 0.9 | 0.00 | 0.00 | 0.00 | 70 | 1018.0 |
| 20260507055104 | 61 | 317 | 0.9 | 0.9 | 0.00 | 0.00 | 0.00 | 69 | 1018.0 |
| 20260507054104 | 61 | 315 | 0.0 | 0.0 | 0.00 | 0.00 | 0.00 | 68 | 1018.0 |
| 20260507053604 | 61 | 315 | 0.0 | 1.7 | 0.00 | 0.00 | 0.00 | 68 | 1017.9 |
| 20260507052604 | 62 | 315 | 0.0 | 1.7 | 0.00 | 0.00 | 0.00 | 67 | 1018.1 |
| 20260507052104 | 62 | 320 | 0.0 | 1.7 | 0.00 | 0.00 | 0.00 | 67 | 1018.0 |
| 20260507051604 | 62 | 315 | 0.0 | 0.9 | 0.00 | 0.00 | 0.00 | 67 | 1018.1 |
| 20260507051106 | 62 | 315 | 0.0 | 0.9 | 0.00 | 0.00 | 0.00 | 67 | 1018.1 |
| 20260507050604 | 62 | 315 | 0.0 | 0.9 | 0.00 | 0.00 | 0.00 | 66 | 1018.0 |
| 20260507050104 | 62 | 315 | 0.0 | 0.9 | 0.00 | 0.00 | 0.00 | 66 | 1018.1 |
| 20260507045604 | 62 | 315 | 0.0 | 1.7 | 0.00 | 0.00 | 0.00 | 66 | 1018.1 |
| 20260507045104 | 63 | 322 | 0.0 | 1.7 | 0.00 | 0.00 | 0.00 | 66 | 1018.1 |
| 20260507044104 | 63 | 298 | 0.9 | 1.7 | 0.00 | 0.00 | 0.00 | 65 | 1017.9 |
| 20260507043604 | 63 | 294 | 0.0 | 0.9 | 0.00 | 0.00 | 0.00 | 65 | 1017.9 |
| 20260507043104 | 63 | 294 | 0.0 | 0.9 | 0.00 | 0.00 | 0.00 | 65 | 1017.8 |
| 20260507042604 | 64 | 294 | 0.0 | 0.9 | 0.00 | 0.00 | 0.00 | 65 | 1017.8 |
| 20260507042106 | 64 | 294 | 0.0 | 0.9 | 0.00 | 0.00 | 0.00 | 64 | 1017.8 |
| 20260507041604 | 64 | 294 | 0.0 | 0.9 | 0.00 | 0.00 | 0.00 | 64 | 1017.8 |
| 20260507041107 | 64 | 294 | 0.0 | 0.9 | 0.00 | 0.00 | 0.00 | 64 | 1017.8 |
| 20260507040604 | 64 | 294 | 0.0 | 0.9 | 0.00 | 0.00 | 0.00 | 63 | 1017.8 |
| 20260507035604 | 65 | 293 | 0.0 | 2.6 | 0.00 | 0.00 | 0.00 | 62 | 1017.8 |
| 20260507035103 | 65 | 292 | 0.0 | 2.6 | 0.00 | 0.00 | 0.00 | 62 | 1017.8 |
| 20260507034604 | 65 | 292 | 1.7 | 2.6 | 0.00 | 0.00 | 0.00 | 61 | 1017.6 |
| 20260507034104 | 65 | 292 | 1.7 | 2.6 | 0.00 | 0.00 | 0.00 | 61 | 1017.6 |
| 20260507033605 | 65 | 292 | 1.7 | 4.3 | 0.00 | 0.00 | 0.00 | 61 | 1017.5 |
| 20260507033104 | 65 | 292 | 1.7 | 4.3 | 0.00 | 0.00 | 0.00 | 61 | 1017.3 |
| 20260507032104 | 66 | 280 | 2.6 | 4.3 | 0.00 | 0.00 | 0.00 | 60 | 1017.3 |
| 20260507031605 | 66 | 264 | 2.6 | 2.6 | 0.00 | 0.00 | 0.00 | 59 | 1017.2 |
| 20260507030604 | 67 | 248 | 1.7 | 2.6 | 0.00 | 0.00 | 0.00 | 58 | 1017.2 |
| 20260507030104 | 67 | 245 | 1.7 | 2.6 | 0.00 | 0.00 | 0.00 | 58 | 1017.2 |
| 20260507025604 | 67 | 243 | 0.9 | 2.6 | 0.00 | 0.00 | 0.00 | 58 | 1017.2 |